Location: Bad Dürkheim
(49.4618°N, 8.1724°E)
Time: 15:50:23
(UTC+00:00)

NOSS 3-4 (A) - Pass Details

Date: 14 June 2025
Orbit: 763 x 1448 km, 63.4° (Epoch: 11 July)

Event Time Altitude Azimuth Distance (km) Brightness Sun altitude
Rises 20:55:03 0° 229° (SW) 3,228 6.2 -9.7°
Reaches altitude 10° 20:57:22 10° 231° (SW) 2,329 5.5 -9.9°
Maximum altitude 21:02:39 70° 316° (NW) 881 3.5 -10.4°
Drops below altitude 10° 21:08:36 10° 41° (NE) 2,620 6.0 -10.9°
Sets 21:11:20 0° 43° (NE) 3,666 6.7 -11.2°
